Chignik, AK

4:17 AM AKST on December 04, 2016 (GMT -0900)
Chignik

Weather History for PAJC - November, 2013

Change the Weather History Date:

Thursday, November 21, 2013

  Actual Average Record
Temperature  
Mean Temperature 30 °F -  
Max Temperature 33 °F 37 °F 51 °F (2003)
Min Temperature 26 °F 31 °F 14 °F (2012)
Degree Days  
Heating Degree Days 36    
Moisture  
Dew Point 29 °F    
Average Humidity 88    
Maximum Humidity 100    
Minimum Humidity 64    
Precipitation  
Precipitation 0.44 in - - ()
Sea Level Pressure  
Sea Level Pressure 29.27 in    
Wind  
Wind Speed 15 mph (WNW)    
Max Wind Speed 28 mph    
Max Gust Speed 39 mph    
Visibility 6 miles    
Events      
Averages and records for this station are not official NWS values.
T = Trace of Precipitation, MM = Missing Value Source: NWS Daily Summary

Daily Weather History Graph

Daily Weather History Graph

Search for Another Location

Airport or City:

Trip Planner

Search our weather history database for the weather conditions in past years. The results will help you decide how hot, cold, wet, or windy it might be!

Date:

Astronomy

Nov. 21, 2013 Rise Set
Actual Time 9:24 AM AKST 5:13 PM AKST
Civil Twilight 8:40 AM AKST 5:57 PM AKST
Nautical Twilight 7:53 AM AKST 6:44 PM AKST
Astronomical Twilight 7:08 AM AKST 7:29 PM AKST
Moon 9:09 PM AKST (11/21) 12:32 PM AKST (11/21)
Length of Visible Light 9h 17m
Length of Day
7h 48m
Waning Gibbous, 84% of the Moon is Illuminated
Nov 21
Waning Gibbous
Nov 25
Last Quarter
Dec 2
New
Dec 9
First Quarter
Dec 17
Full

Hourly Weather History & Observations

Time (AKST) Temp. Windchill Dew Point Humidity Pressure Visibility Wind Dir Wind Speed Gust Speed Precip Events Conditions
12:16 AM 33.8 °F 22.8 °F 33.8 °F 100% 29.53 in 3.0 mi ENE 18.4 mph 26.5 mph 0.05 in   Overcast
12:36 AM 33.8 °F 23.2 °F 33.8 °F 100% 29.52 in 3.0 mi ENE 17.3 mph 26.5 mph 0.10 in   Overcast
12:56 AM 33.8 °F 23.5 °F 32.0 °F 93% 29.51 in 5.0 mi ENE 16.1 mph 29.9 mph 0.15 in   Overcast
1:16 AM 33.8 °F 23.5 °F 33.8 °F 100% 29.50 in 5.0 mi ENE 16.1 mph 25.3 mph 0.05 in   Overcast
1:36 AM 33.8 °F 23.9 °F 33.8 °F 100% 29.50 in 5.0 mi NE 15.0 mph 25.3 mph 0.08 in   Overcast
1:56 AM 33.8 °F 24.8 °F 33.8 °F 100% 29.49 in 3.0 mi ENE 12.7 mph - 0.11 in   Overcast
2:16 AM 33.8 °F 25.3 °F 32.0 °F 93% 29.49 in 3.0 mi NE 11.5 mph 24.2 mph 0.02 in   Overcast
2:36 AM 33.8 °F 24.8 °F 32.0 °F 93% 29.48 in 3.0 mi ENE 12.7 mph 18.4 mph 0.05 in   Overcast
2:56 AM 33.8 °F 24.3 °F 32.0 °F 93% 29.47 in 3.0 mi ENE 13.8 mph 20.7 mph 0.07 in   Overcast
3:16 AM 33.8 °F 23.9 °F 33.8 °F 100% 29.47 in 3.0 mi NE 15.0 mph 23.0 mph 0.03 in   Overcast
3:36 AM 33.8 °F 23.9 °F 33.8 °F 100% 29.46 in 3.0 mi NE 15.0 mph 20.7 mph 0.04 in   Overcast
3:56 AM 33.8 °F 22.8 °F 33.8 °F 100% 29.45 in 4.0 mi ENE 18.4 mph 26.5 mph 0.06 in   Overcast
4:16 AM 33.8 °F 22.8 °F 33.8 °F 100% 29.44 in 8.0 mi ENE 18.4 mph 26.5 mph 0.01 in   Overcast
4:36 AM 33.8 °F 26.4 °F 32.0 °F 93% 29.43 in 6.0 mi NE 9.2 mph - 0.02 in   Overcast
4:56 AM 33.8 °F 26.4 °F 33.8 °F 100% 29.42 in 3.0 mi NE 9.2 mph - 0.04 in   Overcast
5:16 AM 33.8 °F 27.7 °F 32.0 °F 93% 29.41 in 2.5 mi NE 6.9 mph - N/A   Overcast
5:36 AM 33.8 °F 27.0 °F 32.0 °F 93% 29.40 in 2.0 mi NNE 8.1 mph - N/A   Overcast
5:56 AM 32.0 °F 26.4 °F 30.2 °F 93% 29.39 in 2.0 mi NNE 5.8 mph - N/A   Overcast
6:16 AM 32.0 °F 26.4 °F 32.0 °F 100% 29.37 in 1.5 mi NE 5.8 mph - N/A   Overcast
6:36 AM 32.0 °F 26.4 °F 32.0 °F 100% 29.36 in 1.5 mi NE 5.8 mph - N/A   Overcast
6:56 AM 32.0 °F 27.5 °F 32.0 °F 100% 29.35 in 1.5 mi ENE 4.6 mph - N/A   Overcast
7:16 AM 32.0 °F 27.5 °F 32.0 °F 100% 29.34 in 1.5 mi ENE 4.6 mph - N/A   Overcast
7:36 AM 32.0 °F 28.7 °F 32.0 °F 100% 29.33 in 1.2 mi ENE 3.5 mph - N/A   Overcast
7:56 AM 32.0 °F 28.7 °F 32.0 °F 100% 29.32 in 1.5 mi ENE 3.5 mph - N/A   Overcast
8:16 AM 32.0 °F - 32.0 °F 100% 29.31 in 1.5 mi Calm Calm - N/A   Overcast
8:36 AM 32.0 °F - 32.0 °F 100% 29.29 in 2.0 mi Calm Calm - N/A   Overcast
8:56 AM 32.0 °F 24.2 °F 32.0 °F 100% 29.28 in 1.2 mi NW 9.2 mph - N/A   Overcast
9:16 AM 32.0 °F 25.6 °F 32.0 °F 100% 29.27 in 1.2 mi NW 6.9 mph - N/A   Overcast
9:36 AM 32.0 °F 27.5 °F 32.0 °F 100% 29.26 in 0.8 mi WNW 4.6 mph - N/A   Overcast
9:56 AM 32.0 °F 27.5 °F 32.0 °F 100% 29.24 in 1.0 mi WSW 4.6 mph - N/A   Overcast
10:16 AM 32.0 °F 26.4 °F 32.0 °F 100% 29.23 in 1.2 mi WSW 5.8 mph - N/A   Overcast
10:36 AM 32.0 °F 26.4 °F 32.0 °F 100% 29.21 in 1.2 mi SW 5.8 mph - N/A   Overcast
10:56 AM 32.0 °F 24.2 °F 30.2 °F 93% 29.20 in 1.5 mi West 9.2 mph - N/A   Overcast
11:16 AM 33.8 °F 26.4 °F 32.0 °F 93% 29.19 in 1.5 mi West 9.2 mph - N/A   Overcast
11:36 AM 33.8 °F 27.0 °F 30.2 °F 87% 29.17 in 1.8 mi West 8.1 mph - N/A   Overcast
11:56 AM 33.8 °F 25.3 °F 30.2 °F 87% 29.16 in 3.0 mi West 11.5 mph - 0.01 in   Mostly Cloudy
12:16 PM 33.8 °F 25.3 °F 30.2 °F 87% 29.15 in 3.0 mi WSW 11.5 mph - N/A   Overcast
12:36 PM 33.8 °F 24.8 °F 30.2 °F 87% 29.13 in 4.0 mi West 12.7 mph - N/A   Mostly Cloudy
12:56 PM 33.8 °F 25.3 °F 28.4 °F 81% 29.12 in 6.0 mi West 11.5 mph - N/A   Overcast
1:16 PM 33.8 °F 22.8 °F 28.4 °F 81% 29.12 in 10.0 mi WSW 18.4 mph 25.3 mph N/A   Overcast
1:36 PM 33.8 °F 23.5 °F 26.6 °F 75% 29.11 in 10.0 mi WSW 16.1 mph 21.9 mph N/A   Overcast
1:56 PM 33.8 °F 23.5 °F 26.6 °F 75% 29.11 in 10.0 mi West 16.1 mph 21.9 mph N/A   Overcast
2:16 PM 33.8 °F 22.8 °F 26.6 °F 75% 29.11 in 10.0 mi West 18.4 mph 28.8 mph N/A   Overcast
2:36 PM 33.8 °F 22.8 °F 26.6 °F 75% 29.10 in 10.0 mi West 18.4 mph 27.6 mph N/A   Mostly Cloudy
2:56 PM 33.8 °F 22.8 °F 26.6 °F 75% 29.10 in 10.0 mi West 18.4 mph 25.3 mph N/A   Overcast
3:16 PM 33.8 °F 21.9 °F 28.4 °F 81% 29.10 in 10.0 mi West 21.9 mph 32.2 mph N/A   Overcast
3:36 PM 33.8 °F 20.5 °F 28.4 °F 81% 29.10 in 10.0 mi WSW 27.6 mph 33.4 mph N/A   Overcast
3:56 PM 33.8 °F 21.6 °F 28.4 °F 81% 29.10 in 10.0 mi West 23.0 mph 33.4 mph N/A   Overcast
4:16 PM 33.8 °F 23.2 °F 26.6 °F 75% 29.11 in 10.0 mi West 17.3 mph 31.1 mph N/A   Overcast
4:36 PM 33.8 °F 21.3 °F 26.6 °F 75% 29.11 in 10.0 mi WSW 24.2 mph 31.1 mph N/A   Overcast
4:56 PM 33.8 °F 22.2 °F 26.6 °F 75% 29.12 in 10.0 mi WSW 20.7 mph 29.9 mph N/A   Mostly Cloudy
5:16 PM 33.8 °F 21.6 °F 26.6 °F 75% 29.13 in 10.0 mi WSW 23.0 mph 29.9 mph N/A   Mostly Cloudy
5:36 PM 33.8 °F 21.3 °F 26.6 °F 75% 29.13 in 10.0 mi WSW 24.2 mph 33.4 mph N/A   Mostly Cloudy
5:56 PM 32.0 °F 19.2 °F 26.6 °F 80% 29.14 in 10.0 mi WSW 23.0 mph 35.7 mph N/A   Mostly Cloudy
6:16 PM 32.0 °F 18.4 °F 26.6 °F 80% 29.15 in 10.0 mi WSW 26.5 mph 33.4 mph N/A   Mostly Cloudy
6:36 PM 32.0 °F 19.5 °F 26.6 °F 80% 29.16 in 10.0 mi West 21.9 mph 32.2 mph N/A   Mostly Cloudy
6:56 PM 30.2 °F 15.7 °F 24.8 °F 80% 29.16 in 10.0 mi WSW 27.6 mph 32.2 mph N/A   Overcast
7:16 PM 30.2 °F 16.5 °F 24.8 °F 80% 29.18 in 10.0 mi WSW 24.2 mph 29.9 mph N/A   Overcast
7:36 PM 30.2 °F 16.5 °F 26.6 °F 86% 29.18 in 10.0 mi WSW 24.2 mph 31.1 mph N/A   Mostly Cloudy
7:56 PM 30.2 °F 18.9 °F 24.8 °F 80% 29.19 in 10.0 mi West 16.1 mph 27.6 mph N/A   Overcast
8:16 PM 30.2 °F 17.4 °F 24.8 °F 80% 29.20 in 9.0 mi WSW 20.7 mph 31.1 mph N/A   Overcast
8:36 PM 30.2 °F 18.1 °F 24.8 °F 80% 29.21 in 3.0 mi West 18.4 mph 31.1 mph N/A   Overcast
8:56 PM 30.2 °F 17.8 °F 24.8 °F 80% 29.21 in 3.0 mi WSW 19.6 mph 28.8 mph N/A   Overcast
9:16 PM 30.2 °F 15.9 °F 24.8 °F 80% 29.22 in 5.0 mi WSW 26.5 mph 39.1 mph N/A   Mostly Cloudy
9:36 PM 28.4 °F 15.4 °F 23.0 °F 80% 29.24 in 10.0 mi West 19.6 mph 27.6 mph N/A   Overcast
9:56 PM 28.4 °F 15.4 °F 21.2 °F 74% 29.24 in 10.0 mi West 19.6 mph 28.8 mph N/A   Overcast
10:16 PM 28.4 °F 13.8 °F 23.0 °F 80% 29.25 in 7.0 mi WSW 25.3 mph 31.1 mph N/A   Overcast
10:36 PM 28.4 °F 14.1 °F 24.8 °F 86% 29.27 in 5.0 mi West 24.2 mph 32.2 mph N/A   Overcast
10:56 PM 28.4 °F 14.1 °F 23.0 °F 80% 29.27 in 4.0 mi WSW 24.2 mph 35.7 mph N/A   Overcast
11:16 PM 26.6 °F 11.7 °F 21.2 °F 80% 29.28 in 7.0 mi West 24.2 mph 35.7 mph N/A   Overcast
11:36 PM 26.6 °F 12.4 °F 17.6 °F 69% 29.30 in 10.0 mi West 21.9 mph 31.1 mph N/A   Overcast
11:56 PM 26.6 °F 13.1 °F 15.8 °F 64% 29.30 in 10.0 mi West 19.6 mph 32.2 mph N/A   Mostly Cloudy